星链-33586 (STARLINK-33586)

导读

STARLINK-33586是美国于2025年2月21日发射的星链卫星,隶属于SpaceX公司主导的星链项目。该项目旨在构建全球卫星互联网星座,为全球偏远地区、海洋空域等提供低延迟宽带网络服务。作为星链星座的一员,它进一步扩充了星链低轨卫星互联网网络的覆盖范围与服务能力。

基本信息
目录编号:
63073
目录名称:
STARLINK-33586
国际标识:
2025-035X
轨道中心:
EARTH
卫星名称:
星链-33586
卫星全名:
星链-33586 (STARLINK-33586)
卫星状态:
在轨 (已飞行560 天)
发射日期:
2025-02-21 UTC
国别 :
美国 (US)
星等 :
--
轨道信息
数据来源 国际轨道数据 AOE轨道数据
星历时间 2026-09-03T15:02:23+0800
1天前
查看轨道信息
2026-08-31T23:00:00+0800
3天前
查看轨道信息
半长轴 6861.162km 6861.273km
偏心率 0.0001204 0.0001476
轨道倾角 43.001° 43.002°
近地点辐角 271.838° 255.355°
升交点赤经 216.983° 232.057°
平近点角 88.233° 173.665°
近地点 482.198km 482.123km
远地点 483.852km 484.149km
周期 94.266分钟 94.269分钟
每日圈数 15.275881 15.275513
详细信息
固有亮度:
5
最大亮度:
2.5
卫星平台:
Starlink V1.0
覆盖范围:
全球
运营商:
太空探索技术公司
运营商所在国:
美国
制造商(研发单位):
太空探索技术公司
制造商所在国:
美国
使用方式:
暂无
卫星简介
Starlink 计划是 SpaceX 推出的全球卫星互联网项目,通过发射低轨道卫星,为全球尤其是偏远地区提供高速、低延迟的互联网服务。自 2019 年起,Starlink 已部署数千颗卫星,旨在缩小全球数字鸿沟,推动互联网普及。该项目还为军事、航空等行业提供通信支持,带来广泛经济效益。
2D轨道图
3D轨道图
轨道高度分析图
轨道倾角分析图
轨道综合分析图
查看轨道综合分析图
交会数据列表
事件ID 空间交会对象 最接近时刻(TCA) 交会距离 交会风险概率(CRP) 交会风险指数(CRI) 操作
CDM_260905-094005-717306-307321
OBJECT H (57173)
2026-09-05T
09:40:39+0000
0.318 km
远距离
4.325835E-4 高风险 0.88
CDM_260904-091305-690306-307321
2026-09-04T
09:13:31+0000
0.680 km
远距离
4.563593E-5 中风险 0.68
CDM_260904-175105-690306-307321
2026-09-04T
17:51:22+0000
0.871 km
远距离
2.052053E-5 中风险 0.61
CDM_260905-041605-650406-307321
2026-09-05T
04:16:32+0000
1.467 km
极远距离
3.990996E-6 低风险 0.47
CDM_260905-055005-650406-307321
2026-09-05T
05:50:41+0000
1.578 km
极远距离
3.178724E-6 低风险 0.45
CDM_260904-104705-690306-307321
2026-09-04T
10:47:41+0000
1.648 km
极远距离
2.467507E-6 低风险 0.43
CDM_260903-103506-307306-726222
OBJECT Q (67262)
2026-09-03T
10:35:31+0000
2.139 km
极远距离
2.142909E-6 低风险 0.42
CDM_260904-192505-690306-307321
2026-09-04T
19:25:31+0000
2.128 km
极远距离
1.283585E-6 低风险 0.37
CDM_260906-171805-669906-307321
2026-09-06T
17:18:41+0000
2.729 km
极远距离
1.199308E-6 低风险 0.37
CDM_260904-073905-690306-307321
2026-09-04T
07:39:22+0000
2.944 km
极远距离
7.541537E-7 极低风险 0.33